Theta_e
294 294 294 294 294 295 296 298 298 300 300 301 302 303 304 310 311 314 313 313 324 324 323 323 323 323 323 323 323 321 316 313 297 288 289 287 288 288 288 288 288 287 287
292 291 292 294 294 295 296 296 296 296 297 298 300 303 305 310 310 314 312 313 320 324 323 323 323 323 323 323 322 319 315 312 296 288 286 286 285 287 287 286 286 286 285
290 290 291 293 293 294 293 294 294 295 296 296 298 300 302 305 310 313 312 315 321 324 324 323 323 322 318 317 316 312 306 301 294 288 286 285 283 284 285 284 284 285 284
290 290 290 291 291 292 292 293 293 293 293 294 295 297 302 305 311 308 309 308 318 312 315 319 313 315 309 308 305 300 296 291 288 286 284 283 282 282 283 281 279 281 281
289 290 290 290 291 291 291 291 291 291 292 292 293 295 298 300 306 305 302 300 297 298 298 296 298 299 297 297 295 292 290 288 286 285 284 284 282 282 283 282 280 279 279
289 290 290 290 289 289 289 289 290 290 291 291 292 294 294 295 297 297 296 293 292 292 291 292 293 294 294 294 293 293 292 290 289 287 285 284 283 283 282 282 280 279 279
288 288 287 287 287 288 288 289 289 289 289 290 291 291 292 292 292 292 292 291 291 291 291 291 290 291 292 292 292 292 292 292 291 290 286 284 283 283 282 281 281 281 278
287 286 286 286 287 287 288 288 288 288 288 289 288 289 289 290 291 291 290 289 289 289 290 290 289 289 291 293 292 289 289 290 290 289 287 283 282 280 280 280 281 279 275
285 285 285 285 286 287 287 287 287 287 287 287 288 288 288 288 288 287 288 287 285 285 286 287 287 287 289 290 285 281 280 280 280 280 280 279 279 279 279 279 277 277 276
284 284 285 285 286 286 286 286 286 286 286 286 286 286 287 287 286 286 286 286 285 284 284 283 283 283 283 283 281 279 278 277 276 276 275 276 276 275 276 277 278 277 274
285 285 285 285 286 286 286 286 286 286 285 285 285 285 285 285 285 285 284 284 284 284 284 284 283 283 282 281 279 277 275 274 274 274 273 273 273 274 274 275 275 275 274
286 286 286 286 286 286 286 286 286 286 285 285 285 285 285 285 285 284 284 283 283 283 283 283 283 281 280 279 278 277 276 275 274 273 272 271 271 271 271 271 271 272 271
286 286 286 286 286 286 286 286 286 285 285 284 284 284 284 284 284 284 283 282 282 282 282 282 282 281 279 278 277 275 275 275 274 273 271 270 270 269 269 270 270 270 269
287 287 286 286 286 286 286 286 286 286 285 285 284 284 283 283 283 283 282 282 281 281 280 279 278 277 276 275 275 275 275 275 274 272 270 270 270 270 270 270 270 269 269
287 287 287 286 286 286 286 286 286 286 286 285 285 284 284 283 283 283 282 280 279 278 277 276 275 274 274 274 274 274 274 274 273 271 271 270 269 269 269 269 269 269 268
287 287 288 288 287 286 285 286 286 287 287 288 288 287 284 284 283 282 281 280 278 277 276 275 274 274 273 273 272 272 272 272 272 271 270 270 269 268 268 268 268 268 267
288 288 287 287 288 287 287 285 285 285 285 286 286 285 284 284 283 282 281 280 279 278 277 276 275 274 273 273 273 272 271 271 271 271 270 269 268 268 267 267 267 267 266
286 287 287 286 287 287 287 286 285 285 283 284 285 284 283 284 283 282 281 280 279 278 278 276 275 275 274 273 272 272 271 270 270 270 269 269 268 267 267 266 266 266 265
287 285 285 284 284 285 285 286 286 285 283 283 284 284 283 284 284 283 281 281 280 278 277 277 276 275 274 274 273 272 271 270 270 269 268 268 267 267 266 266 265 265 265
286 285 284 283 282 282 283 283 285 284 283 283 282 283 283 283 283 282 280 279 279 278 277 277 276 275 274 274 273 271 270 269 269 268 268 267 267 266 266 265 265 264 264
287 285 283 283 283 283 283 283 284 284 284 283 283 283 283 283 283 282 282 281 280 279 278 278 277 276 275 274 273 272 271 270 269 268 267 266 266 266 265 265 264 264 264
289 288 285 283 283 282 283 283 283 283 283 283 284 284 284 283 282 282 282 282 281 281 279 278 277 276 275 274 273 271 270 269 268 267 267 266 266 266 265 264 264 263 264
291 288 287 284 282 282 282 282 282 282 282 283 283 283 283 284 283 283 282 281 279 280 279 278 277 276 274 273 273 272 271 270 269 268 267 266 266 265 265 264 264 264 263
290 290 288 288 284 282 282 282 282 282 282 282 282 282 282 283 283 282 282 280 278 279 279 279 278 277 275 273 271 271 270 270 269 268 267 266 265 265 265 265 264 264 264
288 289 289 289 288 285 283 282 281 281 281 281 281 281 281 281 282 282 281 280 279 279 279 278 277 276 274 273 271 270 269 269 268 267 266 266 266 265 264 264 264 264 264
286 286 288 288 288 288 285 283 282 282 282 282 281 281 281 280 280 281 281 280 279 279 278 277 276 275 273 271 270 269 269 268 267 266 266 265 265 265 265 264 264 264 264
Wind_Speed
30 31 31 31 31 31 30 29 29 29 29 32 32 33 35 34 35 34 27 28 36 38 41 40 40 39 35 36 32 37 31 26 9 7 19 34 31 30 29 24 20 19 16
27 32 32 29 30 29 26 26 28 30 31 31 34 30 32 33 36 30 31 30 29 46 41 39 38 38 34 39 37 32 32 30 17 23 30 28 30 31 30 23 19 19 15
28 29 29 27 27 25 29 29 31 31 29 31 31 31 32 34 35 31 31 32 28 39 41 41 39 38 34 35 33 31 28 26 31 28 32 30 27 31 28 21 21 21 16
27 26 27 27 28 28 28 31 32 30 31 30 30 31 32 30 22 19 15 5 22 22 27 30 30 35 34 33 32 32 34 35 38 38 32 31 28 27 25 26 21 17 15
27 25 26 29 27 28 30 31 32 30 29 27 27 28 23 16 10 7 5 17 27 33 33 33 33 34 34 35 36 31 38 36 34 32 28 28 27 25 22 17 22 19 14
25 25 26 27 27 28 27 29 29 28 27 24 20 21 16 8 9 14 19 26 26 42 45 45 48 47 47 46 46 40 40 39 33 32 28 24 22 21 22 22 25 15 5
23 23 24 26 27 26 27 27 25 23 20 13 12 5 9 13 25 28 31 30 33 37 41 44 42 47 48 54 50 46 39 35 37 36 29 23 24 26 26 24 19 13 7
21 23 24 25 25 24 24 23 21 18 16 19 18 18 18 20 33 38 39 39 40 38 40 40 41 43 48 53 50 44 39 33 31 32 32 25 27 27 24 22 23 18 18
21 24 26 26 23 21 19 18 18 18 24 23 25 21 18 25 35 28 40 45 46 41 41 41 43 44 44 48 47 44 40 37 32 31 30 27 24 20 19 23 24 22 7
22 24 28 26 24 21 18 18 19 21 23 26 32 31 26 33 37 29 35 42 45 39 40 40 38 37 36 39 44 41 37 30 36 35 31 29 25 21 18 16 15 12 13
22 24 25 24 21 18 17 19 19 22 26 28 32 34 37 30 38 38 38 42 37 35 35 35 32 29 28 27 32 35 36 32 30 34 32 28 25 22 19 16 14 13 14
21 23 23 22 19 18 19 21 22 23 25 25 29 30 35 37 44 42 41 40 34 39 34 36 32 31 32 32 35 32 31 34 32 30 28 25 24 22 21 19 18 17 18
18 21 22 20 17 18 19 18 20 23 23 23 23 23 25 31 40 41 38 39 37 37 39 39 36 35 33 32 29 27 29 29 28 27 25 23 21 20 19 20 19 18 18
16 19 19 21 21 20 20 20 20 18 19 19 20 22 24 27 33 35 33 35 34 37 34 32 32 33 31 30 28 26 25 23 23 25 25 22 20 19 17 14 16 14 15
11 12 15 17 19 20 23 21 22 21 19 19 20 21 21 22 24 26 27 28 28 31 33 31 32 31 30 28 25 23 22 21 23 22 22 20 18 17 16 13 13 11 11
7 9 11 13 13 14 15 18 21 21 22 22 23 26 25 24 21 23 24 25 25 26 30 27 24 25 24 23 22 21 19 19 19 18 18 18 18 17 17 14 13 13 13
2 5 9 7 9 10 11 12 11 18 19 18 18 18 21 20 20 23 21 20 17 22 27 25 24 22 20 20 20 19 19 17 17 17 18 17 17 17 17 15 13 12 11
5 2 1 3 1 4 7 8 6 9 12 15 14 17 17 18 20 20 16 18 17 15 19 20 21 21 20 19 18 19 19 19 17 17 16 16 17 18 17 14 11 11 8
8 5 5 6 6 6 8 8 8 9 13 14 13 13 13 14 16 16 10 14 17 17 16 17 16 16 17 17 16 16 17 18 17 18 18 17 17 17 16 12 11 9 8
13 10 8 7 8 10 9 11 13 12 14 14 12 12 14 16 16 14 6 6 8 10 12 12 13 14 14 14 15 15 16 17 17 16 16 16 16 14 15 12 10 8 6
16 14 12 12 10 10 11 13 13 13 15 15 13 13 17 18 19 19 14 8 8 8 9 10 11 12 13 15 16 18 19 20 19 19 20 21 19 18 15 12 11 8 7
20 17 16 17 14 14 13 12 13 14 15 16 16 15 16 15 13 13 12 12 11 11 10 12 14 14 15 16 17 19 20 20 21 23 21 20 19 15 14 12 11 9 7
25 21 19 18 19 17 16 15 15 14 14 13 14 15 19 21 17 14 13 13 15 17 16 16 15 16 15 15 16 17 20 23 23 21 21 21 19 17 14 12 11 9 6
28 27 24 21 20 20 19 19 18 17 16 15 15 14 14 18 20 16 13 15 16 17 18 17 16 15 15 15 16 15 14 14 15 15 15 18 17 13 12 12 10 8 4
27 28 28 27 23 22 21 19 19 17 16 15 16 16 15 16 19 17 17 17 17 16 16 16 15 14 12 12 12 13 13 11 13 14 15 15 15 14 14 12 8 4 3
26 24 28 27 26 23 22 22 21 19 19 18 17 17 18 18 18 21 20 19 18 17 16 16 14 13 14 14 14 15 14 15 17 18 18 17 17 16 14 11 7 3 3
Wind_Direction
320 320 313 306 305 297 293 290 291 292 293 289 284 279 282 267 268 267 284 286 213 192 197 198 201 202 200 199 198 194 187 172 128 102 144 165 161 159 149 147 140 133 128
330 320 313 309 308 301 298 300 299 295 295 288 283 282 284 275 277 273 281 275 253 200 194 197 200 201 196 194 194 181 182 183 143 139 146 148 147 151 141 142 139 129 130
325 325 321 315 311 313 309 302 301 297 295 293 289 286 288 282 267 269 278 288 240 196 192 196 195 192 190 188 187 174 166 159 140 141 138 136 138 143 136 141 127 129 125
321 322 320 317 314 308 307 306 307 305 299 297 292 290 295 271 262 270 281 178 182 164 171 176 173 177 176 172 162 149 139 125 126 129 130 128 131 143 136 134 116 131 134
317 318 315 312 313 312 311 311 312 311 305 302 302 294 286 263 238 251 185 150 129 120 113 111 126 134 131 135 128 124 124 123 126 127 123 128 137 147 144 146 138 139 132
314 318 319 318 318 318 318 318 318 319 319 316 308 308 299 274 160 143 137 117 108 113 108 106 110 113 115 116 115 118 121 126 129 126 135 144 146 140 150 155 142 146 138
325 328 326 323 321 325 329 329 331 335 335 323 349 342 97 109 109 117 115 110 103 105 109 111 108 109 110 113 113 113 112 119 133 135 133 137 138 155 157 152 154 133 121
334 332 329 328 326 333 342 340 347 357 16 30 29 56 82 94 106 113 108 98 91 90 97 101 104 108 115 118 117 114 113 119 129 132 135 137 144 149 153 152 155 137 120
338 339 336 333 332 343 349 356 12 24 40 44 46 53 71 86 93 98 105 96 87 80 90 96 102 104 114 120 111 99 94 90 96 105 103 106 123 135 145 152 142 132 106
343 349 343 346 352 354 4 20 42 49 54 56 55 52 61 73 85 82 90 96 90 87 84 88 96 101 104 114 112 111 103 104 107 108 105 104 112 107 129 138 145 130 118
3 8 359 3 3 12 25 41 47 57 59 58 61 59 60 70 78 81 78 83 89 91 86 85 88 93 96 98 110 109 113 116 110 112 110 108 108 108 109 111 122 127 116
15 18 8 14 14 23 40 45 53 62 65 64 68 65 63 66 73 76 80 85 90 92 90 91 92 92 93 95 98 104 109 116 114 109 105 102 102 101 98 99 96 94 96
27 23 22 27 35 34 34 44 53 55 60 57 62 69 66 69 73 78 84 91 91 91 96 99 102 97 96 94 97 103 114 114 113 106 100 101 103 103 105 99 95 92 94
14 42 31 32 36 47 53 51 53 58 66 71 73 70 70 73 83 90 90 95 102 103 102 101 99 98 99 107 104 108 108 110 114 115 117 115 114 109 104 109 107 105 93
9 37 41 39 43 46 53 56 65 69 81 84 84 90 92 85 90 106 117 114 111 112 114 111 106 104 104 106 107 109 113 117 116 121 121 120 116 114 109 112 116 108 106
20 20 63 61 49 60 68 72 71 76 77 87 94 93 94 97 106 112 116 112 112 117 109 103 100 108 111 115 115 115 115 117 121 127 126 128 128 128 123 121 123 117 111
10 22 2 35 69 55 57 65 75 75 75 79 83 88 100 107 114 118 114 111 114 123 117 119 121 122 129 132 133 129 128 130 135 135 138 137 135 132 128 124 122 119 105
250 185 214 304 43 107 108 95 92 96 82 91 93 104 111 122 131 128 118 117 118 122 126 131 134 140 144 141 141 141 139 145 146 146 143 144 145 142 137 132 125 122 116
237 212 193 188 184 175 151 139 126 121 112 109 107 106 121 135 140 140 140 148 144 140 143 147 145 151 148 147 151 152 153 156 155 154 152 153 150 145 133 132 132 122 121
226 220 212 206 182 167 164 155 151 154 153 151 146 148 150 151 159 170 164 145 148 154 164 154 160 159 156 160 157 161 163 162 163 163 158 155 153 152 146 150 147 130 126
213 212 210 208 205 198 182 176 176 174 173 177 184 184 181 183 181 190 199 197 186 192 192 186 178 177 179 180 182 180 179 175 172 171 169 166 162 153 153 151 143 138 125
213 210 210 211 207 204 205 202 197 191 189 188 189 189 191 201 201 205 223 235 228 221 212 201 195 195 194 190 187 188 183 178 176 178 171 163 160 157 156 150 141 138 114
214 213 213 213 214 212 210 213 212 212 211 209 203 200 194 202 198 204 212 220 220 216 209 204 201 199 197 195 198 198 190 187 184 180 170 163 162 164 159 147 139 129 129
220 218 217 217 216 217 217 215 215 218 218 221 225 229 221 215 214 213 213 211 212 211 211 209 208 207 199 196 197 194 190 184 180 174 170 163 161 159 154 148 149 150 135
220 218 218 218 217 220 224 227 229 229 230 232 231 232 233 227 223 221 223 224 231 227 221 217 215 212 208 204 197 191 186 184 177 170 169 169 164 159 156 154 145 124 67
215 215 222 222 220 223 225 226 226 228 229 233 236 240 239 235 232 227 233 234 236 230 224 223 219 215 204 196 191 186 178 173 171 171 168 166 162 157 157 149 138 100 29